Location: Archemont
(49.1579°N, 1.7598°E)
Time: 12:44:19
(UTC+00:00)

S-56A Canister/Altair - Pass Details

Date: 22 April 2024
Orbit: 638 x 2488 km, 38.9° (Epoch: 22 May)

Event Time Altitude Azimuth Distance (km) Brightness Sun altitude
Rises 21:54:41 0° 267° (W) 4,116 11.6 -23.1°
Reaches altitude 10° 21:58:14 10° 250° (WSW) 3,451 11.0 -23.4°
Maximum altitude 22:03:57 19° 210° (SSW) 3,258 10.4 -23.9°
Enters shadow 22:05:25 18° 200° (SSW) 3,400 10.4 -24.0°
Drops below altitude 10° 22:11:04 10° 172° (S) 4,413 - -24.4°
Sets 22:16:34 0° 157° (SSE) 5,725 - -24.8°
